Time,TemperatureF,DewpointF,PressureIn,WindDirection,WindDirectionDegrees,WindSpeedMPH,WindSpeedGustMPH,Humidity,HourlyPrecipIn,Conditions,Clouds,dailyrainin,SoftwareType,DateUTC
2013-07-28 00:02:00,62.6,60.8,29.61,North,-999,0.0,0.0,94,0.00,,,0.19,pywws,2013-07-27 23:02:00,
2013-07-28 00:07:00,62.4,60.7,29.62,North,-999,0.0,0.0,94,0.00,,,0.00,pywws,2013-07-27 23:07:00,
2013-07-28 00:12:00,62.4,60.7,29.62,North,-999,0.0,0.0,94,0.02,,,0.02,pywws,2013-07-27 23:12:00,
2013-07-28 00:17:00,62.4,60.7,29.63,North,-999,0.0,0.0,94,0.02,,,0.02,pywws,2013-07-27 23:17:00,
2013-07-28 00:48:00,62.1,60.3,29.63,North,-999,0.0,0.7,94,0.02,,,0.02,pywws,2013-07-27 23:48:00,
2013-07-28 01:04:00,62.1,60.6,29.64,North,-999,0.0,49.4,95,0.07,,,0.07,pywws,2013-07-28 00:04:00,
2013-07-28 01:10:00,62.1,60.6,29.64,North,-999,0.0,49.4,95,0.05,,,0.07,pywws,2013-07-28 00:10:00,
2013-07-28 01:15:00,62.1,60.6,29.65,North,-999,0.0,0.7,95,0.00,,,0.02,pywws,2013-07-28 00:15:00,
2013-07-28 01:20:00,62.1,60.6,29.65,North,-999,0.0,0.7,95,0.00,,,0.02,pywws,2013-07-28 00:20:00,
2013-07-28 01:32:00,62.1,60.6,29.65,North,-999,0.0,0.7,95,0.00,,,0.02,pywws,2013-07-28 00:32:00,
2013-07-28 01:36:00,61.9,60.4,29.65,North,-999,0.0,2.2,95,0.01,,,0.04,pywws,2013-07-28 00:36:00,
2013-07-28 01:42:00,61.7,60.3,29.65,North,-999,0.0,0.7,95,0.01,,,0.04,pywws,2013-07-28 00:42:00,
2013-07-28 01:47:00,61.7,60.3,29.65,North,-999,0.0,0.7,95,0.01,,,0.04,pywws,2013-07-28 00:47:00,
2013-07-28 02:03:00,61.7,60.3,29.65,North,-999,0.0,0.0,95,0.01,,,0.04,pywws,2013-07-28 01:03:00,
2013-07-28 02:08:00,61.7,60.3,29.65,North,-999,0.0,0.7,95,0.00,,,0.04,pywws,2013-07-28 01:08:00,
2013-07-28 02:14:00,61.7,60.3,29.65,North,-999,0.0,0.7,95,0.01,,,0.04,pywws,2013-07-28 01:14:00,
2013-07-28 02:19:00,61.3,59.9,29.65,North,-999,0.0,1.6,95,0.01,,,0.04,pywws,2013-07-28 01:19:00,
2013-07-28 02:24:00,61.3,59.9,29.64,North,-999,0.0,0.7,95,0.01,,,0.04,pywws,2013-07-28 01:24:00,
2013-07-28 02:35:00,61.3,59.9,29.65,North,-999,0.0,0.7,95,0.01,,,0.04,pywws,2013-07-28 01:35:00,
2013-07-28 02:45:00,61.0,59.5,29.65,North,-999,0.0,0.0,95,0.00,,,0.04,pywws,2013-07-28 01:45:00,
2013-07-28 02:50:00,61.0,59.5,29.66,North,-999,0.0,0.0,95,0.00,,,0.04,pywws,2013-07-28 01:50:00,
2013-07-28 03:02:00,61.0,59.5,29.66,North,-999,0.0,4.5,95,0.00,,,0.04,pywws,2013-07-28 02:02:00,
2013-07-28 03:07:00,61.0,59.5,29.67,North,-999,0.0,1.6,95,0.00,,,0.04,pywws,2013-07-28 02:07:00,
2013-07-28 03:12:00,60.8,59.4,29.67,North,-999,0.0,0.7,95,0.00,,,0.04,pywws,2013-07-28 02:12:00,
2013-07-28 03:18:00,60.8,59.4,29.68,North,-999,0.0,0.0,95,0.00,,,0.04,pywws,2013-07-28 02:18:00,
2013-07-28 03:23:00,60.6,59.2,29.68,North,-999,0.0,0.0,95,0.00,,,0.04,pywws,2013-07-28 02:23:00,
2013-07-28 03:33:00,60.6,59.2,29.68,North,-999,0.0,0.7,95,0.00,,,0.04,pywws,2013-07-28 02:33:00,
2013-07-28 03:37:00,60.4,59.0,29.68,North,-999,0.0,0.7,95,0.00,,,0.04,pywws,2013-07-28 02:37:00,
2013-07-28 03:42:00,60.4,59.0,29.68,North,-999,0.0,0.7,95,0.00,,,0.04,pywws,2013-07-28 02:42:00,
2013-07-28 03:47:00,60.3,58.5,29.68,North,-999,0.0,0.7,94,0.00,,,0.04,pywws,2013-07-28 02:47:00,
2013-07-28 03:53:00,60.3,58.5,29.68,North,-999,0.0,0.7,94,0.00,,,0.04,pywws,2013-07-28 02:53:00,
2013-07-28 04:04:00,60.3,58.5,29.68,North,-999,0.0,0.0,94,0.00,,,0.04,pywws,2013-07-28 03:04:00,
2013-07-28 04:09:00,60.3,58.5,29.69,North,-999,0.0,0.7,94,0.00,,,0.04,pywws,2013-07-28 03:09:00,
2013-07-28 04:14:00,60.1,58.3,29.69,North,-999,0.0,0.0,94,0.00,,,0.04,pywws,2013-07-28 03:14:00,
2013-07-28 04:19:00,59.9,58.2,29.69,North,-999,0.0,0.7,94,0.00,,,0.04,pywws,2013-07-28 03:19:00,
2013-07-28 04:24:00,59.7,58.0,29.69,North,-999,0.0,0.7,94,0.00,,,0.04,pywws,2013-07-28 03:24:00,
2013-07-28 04:34:00,59.5,57.8,29.69,North,-999,0.0,0.0,94,0.00,,,0.04,pywws,2013-07-28 03:34:00,
2013-07-28 04:39:00,59.5,57.8,29.70,North,-999,0.0,0.7,94,0.00,,,0.04,pywws,2013-07-28 03:39:00,
2013-07-28 04:44:00,59.5,57.8,29.70,North,-999,0.0,0.7,94,0.00,,,0.04,pywws,2013-07-28 03:44:00,
2013-07-28 04:49:00,59.5,57.8,29.70,North,-999,0.0,1.6,94,0.00,,,0.04,pywws,2013-07-28 03:49:00,
2013-07-28 04:54:00,59.5,57.8,29.70,North,-999,0.0,2.2,94,0.00,,,0.04,pywws,2013-07-28 03:54:00,
2013-07-28 05:04:00,59.4,57.6,29.71,North,-999,0.0,1.6,94,0.00,,,0.04,pywws,2013-07-28 04:04:00,
2013-07-28 05:09:00,59.2,57.5,29.71,North,-999,0.0,0.7,94,0.00,,,0.04,pywws,2013-07-28 04:09:00,
2013-07-28 05:14:00,59.0,57.3,29.71,North,-999,0.0,0.0,94,0.00,,,0.04,pywws,2013-07-28 04:14:00,
2013-07-28 05:19:00,58.8,57.1,29.71,North,-999,0.0,0.7,94,0.00,,,0.04,pywws,2013-07-28 04:19:00,
2013-07-28 05:24:00,58.6,56.9,29.71,North,-999,0.0,0.0,94,0.00,,,0.04,pywws,2013-07-28 04:24:00,
2013-07-28 05:34:00,58.6,56.9,29.72,North,-999,0.0,0.7,94,0.00,,,0.04,pywws,2013-07-28 04:34:00,
2013-07-28 05:39:00,58.5,56.7,29.72,North,-999,0.0,0.0,94,0.00,,,0.04,pywws,2013-07-28 04:39:00,
2013-07-28 05:44:00,58.3,56.6,29.72,North,-999,0.0,0.0,94,0.00,,,0.04,pywws,2013-07-28 04:44:00,
2013-07-28 05:49:00,58.3,56.6,29.72,North,-999,0.0,1.6,94,0.00,,,0.04,pywws,2013-07-28 04:49:00,
2013-07-28 05:54:00,58.1,56.4,29.72,North,-999,0.0,0.0,94,0.00,,,0.04,pywws,2013-07-28 04:54:00,
2013-07-28 06:04:00,58.5,56.7,29.72,North,-999,0.0,2.2,94,0.00,,,0.04,pywws,2013-07-28 05:04:00,
2013-07-28 06:14:00,58.6,56.9,29.73,North,-999,0.0,2.2,94,0.00,,,0.04,pywws,2013-07-28 05:14:00,
2013-07-28 06:19:00,58.6,56.9,29.73,North,-999,0.0,2.2,94,0.00,,,0.04,pywws,2013-07-28 05:19:00,
2013-07-28 06:34:00,58.8,56.8,29.73,North,-999,0.0,3.1,93,0.00,,,0.04,pywws,2013-07-28 05:34:00,
2013-07-28 06:39:00,59.2,57.2,29.73,North,-999,0.0,0.7,93,0.00,,,0.04,pywws,2013-07-28 05:39:00,
2013-07-28 06:44:00,59.0,56.7,29.73,North,-999,0.0,1.6,92,0.00,,,0.04,pywws,2013-07-28 05:44:00,
2013-07-28 06:54:00,59.9,57.3,29.73,North,-999,0.0,0.7,91,0.00,,,0.04,pywws,2013-07-28 05:54:00,
2013-07-28 07:04:00,59.9,57.3,29.74,North,-999,0.0,0.0,91,0.00,,,0.04,pywws,2013-07-28 06:04:00,
2013-07-28 07:09:00,60.1,57.4,29.73,North,-999,0.0,0.7,91,0.00,,,0.04,pywws,2013-07-28 06:09:00,
2013-07-28 07:14:00,60.6,57.7,29.73,North,-999,0.0,0.7,90,0.00,,,0.04,pywws,2013-07-28 06:14:00,
2013-07-28 07:19:00,60.6,57.7,29.73,North,-999,0.0,0.7,90,0.00,,,0.04,pywws,2013-07-28 06:19:00,
2013-07-28 07:24:00,61.0,57.7,29.73,North,-999,0.0,0.0,89,0.00,,,0.04,pywws,2013-07-28 06:24:00,
2013-07-28 07:34:00,61.3,57.8,29.73,North,-999,0.0,1.6,88,0.00,,,0.04,pywws,2013-07-28 06:34:00,
2013-07-28 07:49:00,63.5,58.6,29.74,North,-999,0.0,1.6,84,0.00,,,0.04,pywws,2013-07-28 06:49:00,
2013-07-28 07:54:00,63.7,58.4,29.74,North,-999,0.0,2.2,83,0.00,,,0.04,pywws,2013-07-28 06:54:00,
2013-07-28 08:04:00,63.7,58.4,29.74,North,-999,0.0,2.2,83,0.00,,,0.04,pywws,2013-07-28 07:04:00,
2013-07-28 08:09:00,64.4,59.1,29.75,North,-999,0.0,0.7,83,0.00,,,0.04,pywws,2013-07-28 07:09:00,
2013-07-28 08:19:00,67.1,59.6,29.75,North,-999,0.0,0.0,77,0.00,,,0.04,pywws,2013-07-28 07:19:00,
2013-07-28 08:24:00,67.6,59.8,29.75,North,-999,0.0,0.7,76,0.00,,,0.04,pywws,2013-07-28 07:24:00,
2013-07-28 08:34:00,68.0,59.0,29.75,North,-999,0.0,1.6,73,0.00,,,0.04,pywws,2013-07-28 07:34:00,
2013-07-28 08:39:00,69.3,59.4,29.75,North,-999,0.0,3.1,71,0.00,,,0.04,pywws,2013-07-28 07:39:00,
2013-07-28 08:44:00,68.5,58.8,29.75,North,-999,0.0,1.6,71,0.00,,,0.04,pywws,2013-07-28 07:44:00,
2013-07-28 08:49:00,69.6,59.0,29.75,North,-999,0.0,1.6,69,0.00,,,0.04,pywws,2013-07-28 07:49:00,
2013-07-28 08:54:00,71.8,59.8,29.75,North,-999,0.0,0.7,66,0.00,,,0.04,pywws,2013-07-28 07:54:00,
2013-07-28 09:04:00,72.1,59.3,29.76,North,-999,0.0,2.2,64,0.00,,,0.04,pywws,2013-07-28 08:04:00,
2013-07-28 09:09:00,70.7,57.9,29.76,North,-999,0.0,2.2,64,0.00,,,0.04,pywws,2013-07-28 08:09:00,
2013-07-28 09:14:00,69.6,58.6,29.76,North,-999,0.0,0.7,68,0.00,,,0.04,pywws,2013-07-28 08:14:00,
2013-07-28 09:19:00,68.7,58.1,29.77,North,-999,0.0,1.6,69,0.00,,,0.04,pywws,2013-07-28 08:19:00,
2013-07-28 09:24:00,68.0,57.8,29.77,North,-999,0.0,0.0,70,0.00,,,0.04,pywws,2013-07-28 08:24:00,
2013-07-28 09:34:00,68.0,58.2,29.77,North,-999,0.0,2.2,71,0.00,,,0.04,pywws,2013-07-28 08:34:00,
2013-07-28 09:39:00,68.5,58.8,29.77,West,270,0.7,2.2,71,0.00,,,0.04,pywws,2013-07-28 08:39:00,
2013-07-28 09:44:00,69.8,59.6,29.77,North,-999,0.0,2.2,70,0.00,,,0.04,pywws,2013-07-28 08:44:00,
2013-07-28 09:49:00,71.4,58.6,29.77,North,-999,0.0,2.2,64,0.00,,,0.04,pywws,2013-07-28 08:49:00,
2013-07-28 09:54:00,71.4,58.6,29.77,North,-999,0.0,1.6,64,0.00,,,0.04,pywws,2013-07-28 08:54:00,
2013-07-28 10:04:00,70.9,57.6,29.77,NE,45,0.7,3.8,63,0.00,,,0.04,pywws,2013-07-28 09:04:00,
2013-07-28 10:09:00,70.7,57.5,29.77,North,-999,0.0,0.7,63,0.00,,,0.04,pywws,2013-07-28 09:09:00,
2013-07-28 10:14:00,70.2,56.5,29.78,SW,225,0.7,3.1,62,0.00,,,0.04,pywws,2013-07-28 09:14:00,
2013-07-28 10:19:00,70.5,58.2,29.77,North,-999,0.0,2.2,65,0.00,,,0.04,pywws,2013-07-28 09:19:00,
2013-07-28 10:24:00,72.1,58.8,29.78,SE,135,0.7,1.6,63,0.00,,,0.04,pywws,2013-07-28 09:24:00,
2013-07-28 10:34:00,73.0,57.8,29.78,North,-999,0.0,1.6,59,0.00,,,0.04,pywws,2013-07-28 09:34:00,
2013-07-28 10:39:00,73.2,58.5,29.77,SW,225,0.7,4.5,60,0.00,,,0.04,pywws,2013-07-28 09:39:00,
2013-07-28 10:44:00,72.5,57.8,29.77,South,180,0.7,5.4,60,0.00,,,0.04,pywws,2013-07-28 09:44:00,
2013-07-28 10:49:00,71.4,57.7,29.77,North,-999,0.0,1.6,62,0.00,,,0.04,pywws,2013-07-28 09:49:00,
2013-07-28 10:54:00,70.7,57.9,29.78,South,180,0.7,5.4,64,0.00,,,0.04,pywws,2013-07-28 09:54:00,
2013-07-28 11:04:00,70.9,58.1,29.78,North,-999,0.0,1.6,64,0.00,,,0.04,pywws,2013-07-28 10:04:00,
2013-07-28 11:09:00,71.4,58.2,29.78,North,-999,0.0,2.2,63,0.00,,,0.04,pywws,2013-07-28 10:09:00,
2013-07-28 11:14:00,73.0,58.3,29.78,West,270,0.7,2.2,60,0.00,,,0.04,pywws,2013-07-28 10:14:00,
2013-07-28 11:19:00,73.6,58.4,29.78,North,-999,0.0,1.6,59,0.00,,,0.04,pywws,2013-07-28 10:19:00,
2013-07-28 11:24:00,73.2,56.6,29.77,North,-999,0.0,1.6,56,0.00,,,0.04,pywws,2013-07-28 10:24:00,
2013-07-28 11:34:00,72.7,56.1,29.78,SE,135,0.7,2.2,56,0.00,,,0.04,pywws,2013-07-28 10:34:00,
2013-07-28 11:39:00,73.2,56.6,29.77,North,-999,0.0,1.6,56,0.00,,,0.04,pywws,2013-07-28 10:39:00,
2013-07-28 11:44:00,73.0,56.9,29.78,North,-999,0.0,2.2,57,0.00,,,0.04,pywws,2013-07-28 10:44:00,
2013-07-28 11:49:00,73.0,56.9,29.77,North,-999,0.0,2.2,57,0.00,,,0.04,pywws,2013-07-28 10:49:00,
2013-07-28 12:09:00,75.0,57.7,29.77,North,-999,0.0,1.6,55,0.00,,,0.04,pywws,2013-07-28 11:09:00,
2013-07-28 12:14:00,74.8,56.5,29.77,SE,135,0.7,3.1,53,0.00,,,0.04,pywws,2013-07-28 11:14:00,
2013-07-28 12:19:00,75.2,57.4,29.77,SW,225,0.7,4.5,54,0.00,,,0.04,pywws,2013-07-28 11:19:00,
2013-07-28 12:24:00,75.2,56.3,29.77,North,-999,0.0,2.2,52,0.00,,,0.04,pywws,2013-07-28 11:24:00,
2013-07-28 12:34:00,75.4,57.0,29.77,North,-999,0.0,2.2,53,0.00,,,0.04,pywws,2013-07-28 11:34:00,
2013-07-28 12:39:00,75.7,57.4,29.78,South,180,0.7,2.2,53,0.00,,,0.04,pywws,2013-07-28 11:39:00,
2013-07-28 12:44:00,75.7,56.8,29.77,SW,225,0.7,3.1,52,0.00,,,0.04,pywws,2013-07-28 11:44:00,
2013-07-28 12:49:00,75.6,56.7,29.77,SW,225,0.7,2.2,52,0.00,,,0.04,pywws,2013-07-28 11:49:00,
2013-07-28 12:54:00,75.7,56.3,29.77,SE,135,0.7,2.2,51,0.00,,,0.04,pywws,2013-07-28 11:54:00,
2013-07-28 13:04:00,75.6,56.1,29.77,South,180,0.7,3.1,51,0.00,,,0.04,pywws,2013-07-28 12:04:00,
2013-07-28 13:09:00,77.2,56.5,29.77,North,-999,0.0,2.2,49,0.00,,,0.04,pywws,2013-07-28 12:09:00,
2013-07-28 13:14:00,76.5,55.9,29.78,North,-999,0.0,2.2,49,0.00,,,0.04,pywws,2013-07-28 12:14:00,
2013-07-28 13:19:00,76.1,55.5,29.77,North,-999,0.0,0.7,49,0.00,,,0.04,pywws,2013-07-28 12:19:00,
2013-07-28 13:24:00,76.3,57.3,29.77,North,-999,0.0,1.6,52,0.00,,,0.04,pywws,2013-07-28 12:24:00,
2013-07-28 13:34:00,75.7,56.8,29.78,North,-999,0.0,3.8,52,0.00,,,0.04,pywws,2013-07-28 12:34:00,
2013-07-28 13:39:00,75.6,57.2,29.78,North,-999,0.0,1.6,53,0.00,,,0.04,pywws,2013-07-28 12:39:00,
2013-07-28 13:44:00,75.4,56.0,29.77,North,-999,0.0,1.6,51,0.00,,,0.04,pywws,2013-07-28 12:44:00,
2013-07-28 13:49:00,75.4,56.0,29.78,North,-999,0.0,1.6,51,0.00,,,0.04,pywws,2013-07-28 12:49:00,
2013-07-28 14:04:00,75.0,56.2,29.77,North,-999,0.0,0.7,52,0.00,,,0.04,pywws,2013-07-28 13:04:00,
2013-07-28 14:09:00,74.7,56.4,29.78,SE,135,0.7,3.8,53,0.00,,,0.04,pywws,2013-07-28 13:09:00,
2013-07-28 14:14:00,74.7,56.4,29.78,SE,135,0.7,3.8,53,0.00,,,0.04,pywws,2013-07-28 13:14:00,
2013-07-28 14:39:00,74.7,55.9,29.78,North,0,0.7,3.8,52,0.00,,,0.04,pywws,2013-07-28 13:39:00,
2013-07-28 14:44:00,74.5,56.2,29.78,SW,225,1.6,5.4,53,0.00,,,0.04,pywws,2013-07-28 13:44:00,
2013-07-28 14:49:00,74.5,56.2,29.78,SW,225,1.6,5.4,53,0.00,,,0.04,pywws,2013-07-28 13:49:00,
2013-07-28 14:54:00,74.8,56.0,29.78,SE,135,0.7,3.8,52,0.00,,,0.04,pywws,2013-07-28 13:54:00,
2013-07-28 15:04:00,74.8,56.0,29.78,SE,135,0.7,3.8,52,0.00,,,0.04,pywws,2013-07-28 14:04:00,
2013-07-28 15:14:00,74.3,56.0,29.78,SE,135,0.7,2.2,53,0.00,,,0.04,pywws,2013-07-28 14:14:00,
2013-07-28 15:19:00,73.8,55.0,29.78,NE,45,0.7,2.2,52,0.00,,,0.04,pywws,2013-07-28 14:19:00,
2013-07-28 15:24:00,73.6,55.9,29.78,North,0,0.7,2.2,54,0.00,,,0.04,pywws,2013-07-28 14:24:00,
2013-07-28 15:34:00,73.2,55.6,29.79,NW,315,0.7,3.8,54,0.00,,,0.04,pywws,2013-07-28 14:34:00,
2013-07-28 15:39:00,73.0,55.4,29.80,NW,315,0.7,2.2,54,0.00,,,0.04,pywws,2013-07-28 14:39:00,
2013-07-28 15:44:00,70.0,59.7,29.80,South,180,0.7,2.2,70,0.01,,,0.05,pywws,2013-07-28 14:44:00,
2013-07-28 15:49:00,68.9,59.9,29.80,North,-999,0.0,0.0,73,0.01,,,0.05,pywws,2013-07-28 14:49:00,
2013-07-28 15:54:00,68.9,60.6,29.80,North,-999,0.0,0.0,75,0.01,,,0.05,pywws,2013-07-28 14:54:00,
2013-07-28 16:04:00,68.7,60.5,29.80,South,180,1.6,5.4,75,0.01,,,0.05,pywws,2013-07-28 15:04:00,
2013-07-28 16:09:00,68.0,59.8,29.79,North,-999,0.0,0.7,75,0.01,,,0.05,pywws,2013-07-28 15:09:00,
2013-07-28 16:14:00,67.8,59.6,29.80,North,-999,0.0,0.7,75,0.01,,,0.05,pywws,2013-07-28 15:14:00,
2013-07-28 16:19:00,67.5,59.3,29.80,SSW,202,0.7,2.2,75,0.01,,,0.05,pywws,2013-07-28 15:19:00,
2013-07-28 16:24:00,67.3,59.4,29.80,North,-999,0.0,0.0,76,0.01,,,0.05,pywws,2013-07-28 15:24:00,
2013-07-28 16:34:00,67.5,60.0,29.80,North,-999,0.0,0.0,77,0.01,,,0.05,pywws,2013-07-28 15:34:00,
2013-07-28 16:39:00,68.9,60.3,29.79,North,-999,0.0,1.6,74,0.01,,,0.05,pywws,2013-07-28 15:39:00,
2013-07-28 16:44:00,69.8,59.6,29.79,SE,135,0.7,2.2,70,0.00,,,0.05,pywws,2013-07-28 15:44:00,
2013-07-28 16:49:00,70.2,59.9,29.80,North,-999,0.0,1.6,70,0.00,,,0.05,pywws,2013-07-28 15:49:00,
2013-07-28 16:54:00,70.7,59.2,29.79,SE,135,0.7,2.2,67,0.00,,,0.05,pywws,2013-07-28 15:54:00,
2013-07-28 17:04:00,70.5,57.7,29.80,South,180,1.6,6.0,64,0.00,,,0.05,pywws,2013-07-28 16:04:00,
2013-07-28 17:09:00,70.9,58.5,29.80,NNW,338,1.6,3.8,65,0.00,,,0.05,pywws,2013-07-28 16:09:00,
2013-07-28 17:14:00,71.4,56.3,29.80,SE,135,1.6,4.5,59,0.00,,,0.05,pywws,2013-07-28 16:14:00,
2013-07-28 17:19:00,71.4,56.3,29.80,North,0,1.6,4.5,59,0.00,,,0.05,pywws,2013-07-28 16:19:00,
2013-07-28 17:24:00,71.4,56.3,29.80,NW,315,1.6,5.4,59,0.00,,,0.05,pywws,2013-07-28 16:24:00,
2013-07-28 17:34:00,71.6,56.0,29.79,West,270,1.6,5.4,58,0.00,,,0.05,pywws,2013-07-28 16:34:00,
2013-07-28 17:39:00,71.6,56.0,29.79,WSW,248,0.7,4.5,58,0.00,,,0.05,pywws,2013-07-28 16:39:00,
2013-07-28 17:44:00,71.6,56.5,29.79,South,180,0.7,2.2,59,0.00,,,0.05,pywws,2013-07-28 16:44:00,
2013-07-28 17:49:00,72.1,56.5,29.80,North,-999,0.0,0.7,58,0.00,,,0.05,pywws,2013-07-28 16:49:00,
2013-07-28 17:54:00,72.5,56.4,29.79,NE,45,0.7,2.2,57,0.00,,,0.05,pywws,2013-07-28 16:54:00,
2013-07-28 18:04:00,72.9,56.2,29.79,NW,315,1.6,3.8,56,0.00,,,0.05,pywws,2013-07-28 17:04:00,
2013-07-28 18:09:00,72.0,55.4,29.79,North,-999,0.0,0.7,56,0.00,,,0.05,pywws,2013-07-28 17:09:00,
2013-07-28 18:14:00,71.6,55.1,29.79,SE,135,0.7,3.1,56,0.00,,,0.05,pywws,2013-07-28 17:14:00,
2013-07-28 18:19:00,71.2,54.7,29.80,North,-999,0.0,0.7,56,0.00,,,0.05,pywws,2013-07-28 17:19:00,
2013-07-28 18:24:00,71.2,55.2,29.80,South,180,0.7,2.2,57,0.00,,,0.05,pywws,2013-07-28 17:24:00,
2013-07-28 18:34:00,70.9,55.4,29.80,South,180,0.7,4.5,58,0.00,,,0.05,pywws,2013-07-28 17:34:00,
2013-07-28 18:39:00,70.9,55.4,29.79,SW,225,0.7,3.8,58,0.00,,,0.05,pywws,2013-07-28 17:39:00,
2013-07-28 18:44:00,70.7,55.2,29.79,North,-999,0.0,3.1,58,0.00,,,0.05,pywws,2013-07-28 17:44:00,
2013-07-28 18:49:00,70.5,55.0,29.80,North,-999,0.0,0.7,58,0.00,,,0.05,pywws,2013-07-28 17:49:00,
2013-07-28 18:54:00,70.9,55.4,29.79,South,180,0.7,3.8,58,0.00,,,0.05,pywws,2013-07-28 17:54:00,
2013-07-28 19:04:00,70.9,55.4,29.79,North,-999,0.0,1.6,58,0.00,,,0.05,pywws,2013-07-28 18:04:00,
2013-07-28 19:09:00,70.3,55.3,29.79,North,-999,0.0,2.2,59,0.00,,,0.05,pywws,2013-07-28 18:09:00,
2013-07-28 19:14:00,70.3,55.3,29.79,North,-999,0.0,2.2,59,0.00,,,0.05,pywws,2013-07-28 18:14:00,
2013-07-28 19:19:00,70.3,56.2,29.79,North,-999,0.0,0.7,61,0.00,,,0.05,pywws,2013-07-28 18:19:00,
2013-07-28 19:24:00,70.2,56.5,29.79,North,-999,0.0,0.7,62,0.00,,,0.05,pywws,2013-07-28 18:24:00,
2013-07-28 19:34:00,70.0,56.4,29.79,North,-999,0.0,1.6,62,0.00,,,0.05,pywws,2013-07-28 18:34:00,
2013-07-28 19:39:00,69.8,56.2,29.79,West,270,0.7,5.4,62,0.00,,,0.05,pywws,2013-07-28 18:39:00,
2013-07-28 19:44:00,69.8,56.2,29.79,North,-999,0.0,0.7,62,0.00,,,0.05,pywws,2013-07-28 18:44:00,
2013-07-28 19:49:00,69.8,56.2,29.79,North,-999,0.0,0.7,62,0.00,,,0.05,pywws,2013-07-28 18:49:00,
2013-07-28 19:54:00,69.6,56.5,29.79,North,-999,0.0,3.1,63,0.00,,,0.05,pywws,2013-07-28 18:54:00,
2013-07-28 20:04:00,69.4,56.3,29.79,North,-999,0.0,0.7,63,0.00,,,0.05,pywws,2013-07-28 19:04:00,
2013-07-28 20:09:00,69.1,55.9,29.79,North,-999,0.0,3.1,63,0.00,,,0.05,pywws,2013-07-28 19:09:00,
2013-07-28 20:14:00,69.3,56.1,29.78,SE,135,0.7,3.1,63,0.00,,,0.05,pywws,2013-07-28 19:14:00,
2013-07-28 20:19:00,69.3,56.1,29.79,South,180,0.7,2.2,63,0.00,,,0.05,pywws,2013-07-28 19:19:00,
2013-07-28 20:24:00,69.3,56.1,29.79,North,-999,0.0,2.2,63,0.00,,,0.05,pywws,2013-07-28 19:24:00,
2013-07-28 20:34:00,69.3,56.1,29.78,North,-999,0.0,0.7,63,0.00,,,0.05,pywws,2013-07-28 19:34:00,
2013-07-28 20:39:00,69.1,55.9,29.78,NW,315,0.7,1.6,63,0.00,,,0.05,pywws,2013-07-28 19:39:00,
2013-07-28 20:44:00,68.9,56.2,29.78,North,-999,0.0,2.2,64,0.00,,,0.05,pywws,2013-07-28 19:44:00,
2013-07-28 20:49:00,68.5,55.9,29.78,North,-999,0.0,1.6,64,0.00,,,0.05,pywws,2013-07-28 19:49:00,
2013-07-28 20:54:00,68.5,56.3,29.78,SE,135,0.7,3.8,65,0.00,,,0.05,pywws,2013-07-28 19:54:00,
2013-07-28 21:04:00,68.4,56.1,29.78,North,-999,0.0,1.6,65,0.00,,,0.05,pywws,2013-07-28 20:04:00,
2013-07-28 21:09:00,68.2,56.4,29.78,North,-999,0.0,1.6,66,0.00,,,0.05,pywws,2013-07-28 20:09:00,
2013-07-28 21:14:00,68.0,56.2,29.78,SW,225,0.7,4.5,66,0.00,,,0.05,pywws,2013-07-28 20:14:00,
2013-07-28 21:19:00,68.0,56.2,29.78,North,-999,0.0,2.2,66,0.00,,,0.05,pywws,2013-07-28 20:19:00,
2013-07-28 21:24:00,67.6,55.9,29.78,North,0,0.7,3.8,66,0.00,,,0.05,pywws,2013-07-28 20:24:00,
2013-07-28 21:34:00,67.8,56.0,29.79,North,-999,0.0,1.6,66,0.00,,,0.05,pywws,2013-07-28 20:34:00,
2013-07-28 21:39:00,67.3,55.9,29.79,North,-999,0.0,0.7,67,0.00,,,0.05,pywws,2013-07-28 20:39:00,
2013-07-28 21:44:00,67.3,56.3,29.79,North,-999,0.0,1.6,68,0.00,,,0.05,pywws,2013-07-28 20:44:00,
2013-07-28 21:49:00,67.3,55.9,29.79,SW,225,0.7,3.1,67,0.00,,,0.05,pywws,2013-07-28 20:49:00,
2013-07-28 21:54:00,67.3,55.9,29.79,West,270,0.7,3.8,67,0.00,,,0.05,pywws,2013-07-28 20:54:00,
2013-07-28 22:04:00,67.3,55.9,29.79,North,-999,0.0,2.2,67,0.00,,,0.05,pywws,2013-07-28 21:04:00,
2013-07-28 22:09:00,67.3,55.9,29.79,North,-999,0.0,0.7,67,0.00,,,0.05,pywws,2013-07-28 21:09:00,
2013-07-28 22:14:00,67.5,56.1,29.79,North,-999,0.0,3.1,67,0.00,,,0.05,pywws,2013-07-28 21:14:00,
2013-07-28 22:19:00,67.3,55.9,29.79,SE,135,1.6,5.4,67,0.00,,,0.05,pywws,2013-07-28 21:19:00,
2013-07-28 22:24:00,67.3,55.9,29.79,North,-999,0.0,2.2,67,0.00,,,0.05,pywws,2013-07-28 21:24:00,
2013-07-28 22:34:00,67.1,55.8,29.79,WSW,248,0.7,2.2,67,0.00,,,0.05,pywws,2013-07-28 21:34:00,
2013-07-28 22:39:00,67.1,56.2,29.79,North,-999,0.0,1.6,68,0.00,,,0.05,pywws,2013-07-28 21:39:00,
2013-07-28 22:44:00,67.1,56.2,29.79,South,180,0.7,2.2,68,0.00,,,0.05,pywws,2013-07-28 21:44:00,
2013-07-28 22:49:00,67.1,56.6,29.79,North,-999,0.0,2.2,69,0.00,,,0.05,pywws,2013-07-28 21:49:00,
2013-07-28 22:54:00,67.1,56.6,29.80,North,-999,0.0,0.7,69,0.00,,,0.05,pywws,2013-07-28 21:54:00,
2013-07-28 23:04:00,66.9,56.8,29.80,North,-999,0.0,2.2,70,0.00,,,0.05,pywws,2013-07-28 22:04:00,
2013-07-28 23:09:00,66.7,57.4,29.80,North,-999,0.0,0.7,72,0.00,,,0.05,pywws,2013-07-28 22:09:00,
2013-07-28 23:14:00,66.2,57.7,29.80,North,-999,0.0,0.7,74,0.00,,,0.05,pywws,2013-07-28 22:14:00,
2013-07-28 23:19:00,65.8,57.7,29.80,North,-999,0.0,0.7,75,0.00,,,0.05,pywws,2013-07-28 22:19:00,
2013-07-28 23:24:00,65.1,57.7,29.80,North,-999,0.0,0.7,77,0.00,,,0.05,pywws,2013-07-28 22:24:00,
2013-07-28 23:34:00,64.4,58.4,29.81,North,-999,0.0,3.1,81,0.01,,,0.06,pywws,2013-07-28 22:34:00,
2013-07-28 23:38:00,63.1,58.2,29.81,North,-999,0.0,0.7,84,0.02,,,0.07,pywws,2013-07-28 22:38:00,
2013-07-28 23:43:00,62.6,58.0,29.81,North,-999,0.0,3.1,85,0.02,,,0.07,pywws,2013-07-28 22:43:00,
2013-07-28 23:48:00,62.4,58.5,29.81,South,180,0.7,3.1,87,0.02,,,0.07,pywws,2013-07-28 22:48:00,
2013-07-28 23:53:00,62.1,58.1,29.81,South,180,0.7,4.5,87,0.04,,,0.08,pywws,2013-07-28 22:53:00,